TimeEST,TemperatureF,Dew PointF,Humidity,Sea Level PressureIn,VisibilityMPH,Wind Direction,Wind SpeedMPH,Gust SpeedMPH,PrecipitationIn,Events,Conditions,WindDirDegrees,DateUTC
12:53 AM,46.9,32.0,56,30.30,10.0,NW,10.4,-,N/A,,Clear,310,2013-02-18 05:53:00
1:53 AM,46.9,30.9,54,30.30,10.0,NW,11.5,-,N/A,,Partly Cloudy,320,2013-02-18 06:53:00
2:53 AM,46.9,28.9,50,30.28,10.0,NNW,11.5,-,N/A,,Partly Cloudy,330,2013-02-18 07:53:00
3:53 AM,46.0,28.0,50,30.27,10.0,NNW,10.4,-,N/A,,Partly Cloudy,330,2013-02-18 08:53:00
4:53 AM,46.0,28.0,50,30.27,10.0,NW,11.5,-,N/A,,Partly Cloudy,320,2013-02-18 09:53:00
5:53 AM,46.9,30.0,52,30.28,10.0,NNW,10.4,-,N/A,,Partly Cloudy,330,2013-02-18 10:53:00
6:53 AM,46.9,32.0,56,30.29,10.0,NNW,5.8,-,N/A,,Mostly Cloudy,330,2013-02-18 11:53:00
7:53 AM,48.9,35.1,59,30.30,10.0,NNW,6.9,-,N/A,,Mostly Cloudy,330,2013-02-18 12:53:00
8:53 AM,54.0,39.0,57,30.31,10.0,NNW,6.9,-,N/A,,Mostly Cloudy,330,2013-02-18 13:53:00
9:42 AM,64.4,44.6,49,30.31,10.0,ENE,17.3,-,N/A,,Mostly Cloudy,70,2013-02-18 14:42:00
9:53 AM,64.0,43.0,46,30.32,10.0,East,13.8,-,N/A,,Mostly Cloudy,80,2013-02-18 14:53:00
10:53 AM,64.9,43.0,45,30.33,10.0,East,13.8,24.2,N/A,,Mostly Cloudy,90,2013-02-18 15:53:00
11:53 AM,68.0,43.0,40,30.32,10.0,East,12.7,23.0,N/A,,Mostly Cloudy,100,2013-02-18 16:53:00
12:53 PM,66.9,45.0,45,30.30,10.0,East,12.7,23.0,N/A,,Mostly Cloudy,90,2013-02-18 17:53:00
1:53 PM,66.9,44.1,44,30.28,10.0,East,16.1,-,N/A,,Mostly Cloudy,90,2013-02-18 18:53:00
2:53 PM,68.0,45.0,43,30.26,10.0,East,15.0,-,N/A,,Scattered Clouds,100,2013-02-18 19:53:00
3:53 PM,66.9,46.0,47,30.25,10.0,ESE,12.7,21.9,N/A,,Mostly Cloudy,110,2013-02-18 20:53:00
4:53 PM,66.0,46.9,50,30.26,10.0,East,12.7,-,N/A,,Mostly Cloudy,90,2013-02-18 21:53:00
5:53 PM,66.0,48.0,52,30.25,10.0,East,10.4,-,N/A,,Mostly Cloudy,80,2013-02-18 22:53:00
6:53 PM,66.0,48.9,54,30.25,10.0,East,10.4,-,N/A,,Mostly Cloudy,90,2013-02-18 23:53:00
7:53 PM,66.0,51.1,59,30.25,10.0,East,12.7,-,0.00,,Mostly Cloudy,100,2013-02-19 00:53:00
8:53 PM,66.9,51.1,57,30.24,10.0,East,16.1,24.2,N/A,,Mostly Cloudy,100,2013-02-19 01:53:00
9:53 PM,66.0,53.1,63,30.23,10.0,East,13.8,23.0,N/A,,Mostly Cloudy,90,2013-02-19 02:53:00
10:53 PM,66.9,53.1,61,30.23,10.0,East,16.1,-,N/A,,Scattered Clouds,100,2013-02-19 03:53:00
11:53 PM,66.9,53.1,61,30.22,10.0,East,15.0,-,N/A,,Mostly Cloudy,100,2013-02-19 04:53:00